OPS 6432

Satellite information

Favourite Embed

Satellite Type and Status

PAYLOADIN ORBIT

Key statistics

Satellite OPS 6432 at a glance.

Uptime

15368

Days in orbit

Revolutions

≈ 13.9

Per day

Orbit

LEO

Low Earth Orbit

Inclination

63.3

Latest

Satellite identification and parameters

Extended collection of information and parameters for OPS 6432.

Object identification

Identified? True

Debris? False

Object name: OPS 6432

International designator: 1983-056A

Object number (NORAD): 14112

Object ID (CCSDS): 14112

Country: UNITED STATES OF AMERICA (US)

Current information (Y/N): Y

RCS size: LARGE

Orbital parameters

Period: 103.956 minutes

Inclination: 63.3024 deg

SMA: 7323.652 km

Apoapsis: 1480.651 km

Periapsis: 410.382 km

RAAN: 59.384 deg

Eccentricy: 0.0730693

Argument of periapsis: 126.815 deg

Mean anomaly: 240.2237 deg

Mean motion: 13.85196076 rev/day

Mean motion (dot): 0.00005766 rev/day2

B* drag term: 0.00055662 1/REarth

Two-line elements (TLE)

Creation date: July 5, 2025, 5:45 p.m.

Reference frame: TEME

Reference center: EARTH

Epoch: July 5, 2025, 3:38 a.m. UTC

TLE line 0: 0 OPS 6432

TLE line 1: 1 14112U 83056A 25186.15205641 .00005766 00000-0 55662-3 0 9998

TLE line 2: 2 14112 63.3024 59.3840 0730693 126.8150 240.2237 13.85196076 60157

Live tracking on map

Real-time ground track for satellite OPS 6432.

In-orbit conjunctions

There are no conjunctions computed for OPS 6432, at the moment. Check back to stay up to date, as we update our databases every day.

Go to all conjunctions

Associated space launch

The Parcae satellites were passive ELINT satellites. MSD satellites were dispensers of triplets of ocean surveillance satellites.

OPS 6432 was lifted into orbit during the mission ‘Atlas H | Parcae 6A,B,C & MSD 6’, on board a Atlas H space rocket.

The launch took place on June 9, 1983, 11:23 p.m. from Space Launch Complex 3E.

For more information about the launch, click the button.

Launch to space Atlas H | Parcae 6A,B,C & MSD 6
Atlas H | Parcae 6A,B,C & MSD 6

Agency: N/A

Status: Launch Successful

Launch date: June 9, 1983, 11:23 p.m. UTC

Rocket: Atlas H

Launch pad: Space Launch Complex 3E

Location: Vandenberg SFB, CA, USA

...

Latest news about this satellite

There are no fresh news available about this satellite. Check back as we update our databases every day.


Newsletter sign-up

Weekly statistics, charts and insights to help you stay on top of the space industry.